"Pseudo-MPEC" for P10Lp42

Created 2019 Jan 15 11:18:32 UT using Find_Orb

Click here for an explanation of pseudo-MPECs

 
 Astrometry: 
     P10Lp42  C2019 01 11ywQp#\`1#\f4Aj.CD9,sHAstrometryKQCsmrp*:O)8Soc:@PF.rF51
     P10Lp42  C2019 01 11.2`VS-(J7BSu4ZN*whd=sredacted;e%k!B`6-;y?v9uOFWy8T-3F51
     P10Lp42  C2019 01 11k5#V:H17.D#!=y:mO:J(R$5emVMst1d/ht$6`;xb9U=VUWI^Ktf$F51
     P10Lp42  C2019 01 12.12739 05 20 20.48 +08 24 20.0    ~1C4I 21.4 GVNEOCPI52
     P10Lp42  C2019 01 12.13000 05 20 20.27 +08 24 17.1    ~1C4I 21.2 GVNEOCPI52
     P10Lp42  C2019 01 12.13261 05 20 20.13 +08 24 15.3    ~1C4I 20.8 GVNEOCPI52
     P10Lp42  C2019 01 12.13522 05 20 19.94 +08 24 12.6    ~1C4I 21.0 GVNEOCPI52
     P10Lp42 1C2019 01 13sa[7JI2N9LCk4\GQ9b`36ki65h#_;ASclickBD?K8kn)%+P0x,r:658
     P10Lp42 1C2019 01 13=fptK2ll?5k8:)).2bmcrEoD:)yCZ':Fw5rc'(pc@0l#sYefv7fE658
     P10Lp42 1C2019 01 13S,ST]hGIx)@b$*T'#gGDc80/N6JGocTU.8^h_-gChere'OG2]N5%658
     P10Lp42 1C2019 01 13YH=(eK]'Zve5riXTr%f0T!5)5#qXUglW*NBV2IjbhFw:j0nb54LC658
     P10Lp42  C2019 01 15.18843 05 17 05.95 +07 42 36.5    ~1F5I 20.1 GVNEOCPI52
     P10Lp42  C2019 01 15.19174 05 17 05.72 +07 42 32.7    ~1F5I 20.7 GVNEOCPI52
     P10Lp42  C2019 01 15.19506 05 17 05.55 +07 42 29.7    ~1F5I 21.1 GVNEOCPI52
     P10Lp42 KC2019 01 157N@]_$2for'Zx*$`LK]f;m5W]I^Z9yarL:0ZG9^Y@s1$Qq*V/qqV691
     P10Lp42 KC2019 01 15I@5AmO+G/SaHf[ux:LID)XoTiU](eXV4yF/Fu;G_nb-4x(2l.6j7691
     P10Lp42 KC2019 01 15@ZbPHexplanation;vX;LM1uYr/WTv#b2mTZ-FrI)8]EB,:?UkkL691

Station data:
(658) Dominion Astrophysical Observatory  (N48.519987 W123.417000)
   Canada/BritColumbia. 1.82-m Plaskett reflector.
(691) Steward Observatory, Kitt Peak - Spacewatch  (N31.962174 W111.600327)
   US/Arizona.  Observer J. V. Scotti. 0.9-m f/3 reflector + CCD.
(F51) Pan-STARRS 1, Haleakala  (N20.707235 W156.255910)  US/Hawaii.
   Observers N. Primak, A. Schultz, S. Watters, J. Thiel, T. Goggia. Measurer
   PS1 Science Consortium. 1.8-m Ritchey-Chrétien + CCD.
(I52) Steward Observatory, Mt. Lemmon Station  (N32.442547 W110.788920)
   US/Arizona.  Observers B. M. Africano, E. J. Christensen, G. A. Farneth,
   D. C. Fuls, A. R. Gibbs, A. D. Grauer, H. Groeller, J. A. Johnson, R. A.
   Kowalski, S. M. Larson, G. J. Leonard, R. L. Seaman, F. C. Shelly. 1.0-m
   reflector + CCD.

Orbital elements:  P10Lp42
   Perihelion 2019 Jul 4.996453 +/- 8.48 TT = 23:54:53 (JD 2458669.496453)
Epoch 2019 Jan 15.0 TT = JDT 2458498.5   Earth MOID: 0.6871   AutoNEOCP
M 317.86954147 +/- 3.1              (J2000 ecliptic)
n   0.24638206 +/- 0.00681          Peri.  285.24074 +/- 0.6
a   2.51997748 +/- 0.0464           Node   258.84967 +/- 0.47
e   0.4077834 +/- 0.0227            Incl.   28.59106 +/- 1.3
P   4.00                   H 18.5   G  0.15   U  9.4  
q 1.49237234 +/- 0.0313    Q 3.54758262 +/- 0.124
From 17 observations 2019 Jan. 11-15; mean residual 0".29
Residuals in arcseconds: 
190111 F51  .11-  .11-    190112 I52  .18+  .25-    190115 I52  .43-  .18-    
190111 F51  .07-  .06+    190113 658  .01+  .14-    190115 I52  .15+  .54-    
190111 F51  .04-  .09-    190113 658  .03-  .08-    190115 691  .01-  .00     
190112 I52  .19+  .59+    190113 658  .09-  .14-    190115 691  .15-  .12+    
190112 I52  .26-  .13-    190113 658  .10-  .06-    190115 691  .53+  .29-    
190112 I52  .33+  .26+    190115 I52  .10-  1.0+    

Ephemerides (geocentric):
Date (UTC) HH   RA              Dec         delta   r     elong  mag " sig PA
---- -- -- --  -------------   -----------  ------ ------ -----  --- ---- ---
2019 01 15 11  05 16 49.707   +07 39 04.66  1.1875 2.0503 141.4 21.3 .131  90
2019 01 15 12  05 16 47.222   +07 38 31.74  1.1876 2.0501 141.4 21.3 .143  94
2019 01 15 13  05 16 44.741   +07 37 58.85  1.1877 2.0499 141.3 21.4 .157  98
2019 01 15 14  05 16 42.263   +07 37 25.98  1.1878 2.0496 141.3 21.4 .171 101
2019 01 15 15  05 16 39.789   +07 36 53.14  1.1879 2.0494 141.2 21.4 .185 103
2019 01 15 16  05 16 37.319   +07 36 20.32  1.1881 2.0492 141.2 21.4 .201 105
2019 01 15 17  05 16 34.853   +07 35 47.53  1.1882 2.0490 141.1 21.4 .217 107
2019 01 15 18  05 16 32.391   +07 35 14.77  1.1883 2.0488 141.1 21.4 .234 109
2019 01 15 19  05 16 29.932   +07 34 42.04  1.1884 2.0486 141.0 21.4 .251 110
2019 01 15 20  05 16 27.477   +07 34 09.34  1.1886 2.0484 141.0 21.4 .269 112
2019 01 15 21  05 16 25.026   +07 33 36.66  1.1887 2.0482 140.9 21.4 .287 113
2019 01 15 22  05 16 22.579   +07 33 04.01  1.1888 2.0480 140.8 21.4 .306 114
2019 01 15 23  05 16 20.136   +07 32 31.38  1.1889 2.0478 140.8 21.4 .325 114
2019 01 16 00  05 16 17.696   +07 31 58.79  1.1891 2.0476 140.7 21.4 .344 115
2019 01 16 01  05 16 15.260   +07 31 26.22  1.1892 2.0474 140.7 21.4 .364 116
2019 01 16 02  05 16 12.828   +07 30 53.68  1.1893 2.0472 140.6 21.4 .385 116
2019 01 16 03  05 16 10.400   +07 30 21.17  1.1895 2.0470 140.6 21.4 .406 117
2019 01 16 04  05 16 07.976   +07 29 48.68  1.1896 2.0468 140.5 21.4 .427 118
2019 01 16 05  05 16 05.555   +07 29 16.22  1.1897 2.0466 140.5 21.4 .449 118
2019 01 16 06  05 16 03.139   +07 28 43.79  1.1898 2.0464 140.4 21.4 .471 118
2019 01 16 07  05 16 00.726   +07 28 11.39  1.1900 2.0462 140.4 21.4 .494 119
2019 01 16 08  05 15 58.317   +07 27 39.01  1.1901 2.0460 140.3 21.4 .517 119
2019 01 16 09  05 15 55.912   +07 27 06.66  1.1902 2.0458 140.3 21.4 .540 119
2019 01 16 10  05 15 53.511   +07 26 34.34  1.1904 2.0456 140.2 21.4 .564 120
2019 01 16 11  05 15 51.113   +07 26 02.05  1.1905 2.0454 140.2 21.4 .588 120
2019 01 16 12  05 15 48.720   +07 25 29.78  1.1906 2.0452 140.1 21.4 .613 120
2019 01 16 13  05 15 46.330   +07 24 57.54  1.1907 2.0450 140.1 21.4 .638 120
2019 01 16 14  05 15 43.944   +07 24 25.33  1.1909 2.0448 140.0 21.4 .663 120
2019 01 16 15  05 15 41.562   +07 23 53.15  1.1910 2.0446 140.0 21.4 .689 120
2019 01 16 16  05 15 39.184   +07 23 20.99  1.1911 2.0444 139.9 21.4 .716 121
2019 01 16 17  05 15 36.810   +07 22 48.86  1.1913 2.0442 139.9 21.4 .742 121
2019 01 16 18  05 15 34.439   +07 22 16.76  1.1914 2.0440 139.8 21.4 .770 121
2019 01 16 19  05 15 32.073   +07 21 44.69  1.1915 2.0438 139.8 21.4 .797 121
2019 01 16 20  05 15 29.710   +07 21 12.64  1.1917 2.0436 139.7 21.4 .825 121
2019 01 16 21  05 15 27.351   +07 20 40.63  1.1918 2.0434 139.7 21.4 .854 121
2019 01 16 22  05 15 24.996   +07 20 08.64  1.1919 2.0432 139.6 21.4 .883 121
2019 01 16 23  05 15 22.645   +07 19 36.67  1.1921 2.0430 139.6 21.4 .912 121
2019 01 17 00  05 15 20.298   +07 19 04.74  1.1922 2.0428 139.5 21.4 .942 121
2019 01 17 01  05 15 17.955   +07 18 32.83  1.1923 2.0426 139.5 21.4 .972 121
2019 01 17 02  05 15 15.616   +07 18 00.95  1.1925 2.0424 139.4 21.4 1.00 121
2019 01 17 03  05 15 13.280   +07 17 29.10  1.1926 2.0422 139.4 21.4 1.03 121
2019 01 17 04  05 15 10.949   +07 16 57.28  1.1928 2.0420 139.3 21.4 1.06 121
2019 01 17 05  05 15 08.621   +07 16 25.49  1.1929 2.0418 139.3 21.4 1.10 121
2019 01 17 06  05 15 06.298   +07 15 53.72  1.1930 2.0416 139.2 21.4 1.13 121
2019 01 17 07  05 15 03.978   +07 15 21.98  1.1932 2.0414 139.2 21.4 1.16 121
2019 01 17 08  05 15 01.662   +07 14 50.27  1.1933 2.0412 139.1 21.4 1.19 121
2019 01 17 09  05 14 59.350   +07 14 18.58  1.1934 2.0410 139.1 21.4 1.23 121
2019 01 17 10  05 14 57.042   +07 13 46.93  1.1936 2.0408 139.0 21.4 1.26 121